Time,TemperatureF,DewpointF,PressureIn,WindDirection,WindDirectionDegrees,WindSpeedMPH,WindSpeedGustMPH,Humidity,HourlyPrecipIn,Conditions,Clouds,dailyrainin,SoftwareType,DateUTC
2013-03-04 00:10:00,26.3,12.0,29.99,ENE,71,0.0,-999.0,55,-99.99,,,0.00,weatherlink.com 1.10,2013-03-04 06:10:00,
2013-03-04 00:25:00,26.4,12.0,29.99,ENE,67,0.0,-999.0,55,-99.99,,,0.00,weatherlink.com 1.10,2013-03-04 06:25:00,
2013-03-04 00:40:00,26.5,12.0,29.99,East,96,1.0,-999.0,55,-99.99,,,0.00,weatherlink.com 1.10,2013-03-04 06:40:00,
2013-03-04 00:55:00,26.5,13.0,29.99,ENE,65,1.0,-999.0,56,-99.99,,,0.00,weatherlink.com 1.10,2013-03-04 06:55:00,
2013-03-04 01:10:00,26.5,13.0,29.99,ENE,74,3.0,-999.0,56,-99.99,,,0.00,weatherlink.com 1.10,2013-03-04 07:10:00,
2013-03-04 01:25:00,26.4,13.0,29.99,ENE,61,4.0,-999.0,56,-99.99,,,0.00,weatherlink.com 1.10,2013-03-04 07:25:00,
2013-03-04 01:40:00,26.3,13.0,29.99,ENE,61,2.0,-999.0,57,-99.99,,,0.00,weatherlink.com 1.10,2013-03-04 07:40:00,
2013-03-04 01:55:00,26.2,13.0,29.98,East,80,1.0,-999.0,57,-99.99,,,0.00,weatherlink.com 1.10,2013-03-04 07:55:00,
2013-03-04 02:10:00,26.1,13.0,29.98,NE,55,2.0,-999.0,57,-99.99,,,0.00,weatherlink.com 1.10,2013-03-04 08:10:00,
2013-03-04 02:25:00,26.0,13.0,29.97,ENE,59,3.0,-999.0,57,-99.99,,,0.00,weatherlink.com 1.10,2013-03-04 08:25:00,
2013-03-04 02:40:00,26.0,13.0,29.97,ENE,69,5.0,-999.0,57,-99.99,,,0.00,weatherlink.com 1.10,2013-03-04 08:40:00,
2013-03-04 02:55:00,26.0,13.0,29.96,ENE,57,2.0,-999.0,57,-99.99,,,0.00,weatherlink.com 1.10,2013-03-04 08:55:00,
2013-03-04 03:10:00,26.0,13.0,29.95,NE,46,2.0,-999.0,57,-99.99,,,0.00,weatherlink.com 1.10,2013-03-04 09:10:00,
2013-03-04 03:25:00,26.0,13.0,29.95,ENE,67,4.0,-999.0,58,-99.99,,,0.00,weatherlink.com 1.10,2013-03-04 09:25:00,
2013-03-04 03:40:00,26.1,13.0,29.95,NE,50,2.0,-999.0,58,-99.99,,,0.00,weatherlink.com 1.10,2013-03-04 09:40:00,
2013-03-04 03:55:00,26.1,13.0,29.95,ENE,76,3.0,-999.0,57,-99.99,,,0.00,weatherlink.com 1.10,2013-03-04 09:55:00,
2013-03-04 04:10:00,26.2,13.0,29.95,NE,52,2.0,-999.0,58,-99.99,,,0.00,weatherlink.com 1.10,2013-03-04 10:10:00,
2013-03-04 04:25:00,26.3,13.0,29.95,ENE,76,3.0,-999.0,57,-99.99,,,0.00,weatherlink.com 1.10,2013-03-04 10:25:00,
2013-03-04 04:40:00,26.3,13.0,29.95,ESE,113,3.0,-999.0,58,-99.99,,,0.00,weatherlink.com 1.10,2013-03-04 10:40:00,
2013-03-04 04:55:00,26.3,13.0,29.95,ENE,78,2.0,-999.0,57,-99.99,,,0.00,weatherlink.com 1.10,2013-03-04 10:55:00,
2013-03-04 05:10:00,26.2,14.0,29.96,ENE,76,2.0,-999.0,59,-99.99,,,0.00,weatherlink.com 1.10,2013-03-04 11:10:00,
2013-03-04 05:26:00,26.1,13.0,29.96,East,86,3.0,-999.0,59,-99.99,,,0.00,weatherlink.com 1.10,2013-03-04 11:26:00,
2013-03-04 05:41:00,26.0,13.0,29.96,SE,142,2.0,-999.0,58,-99.99,,,0.00,weatherlink.com 1.10,2013-03-04 11:41:00,
2013-03-04 05:56:00,26.1,14.0,29.96,ENE,76,3.0,-999.0,60,-99.99,,,0.00,weatherlink.com 1.10,2013-03-04 11:56:00,
2013-03-04 06:11:00,26.0,14.0,29.96,SE,133,5.0,-999.0,61,-99.99,,,0.00,weatherlink.com 1.10,2013-03-04 12:11:00,
2013-03-04 06:26:00,26.1,14.0,29.97,ESE,110,5.0,-999.0,60,-99.99,,,0.00,weatherlink.com 1.10,2013-03-04 12:26:00,
2013-03-04 06:41:00,25.8,15.0,29.97,East,84,3.0,-999.0,63,-99.99,,,0.00,weatherlink.com 1.10,2013-03-04 12:41:00,
2013-03-04 06:56:00,25.7,15.0,29.97,ESE,103,3.0,-999.0,64,-99.99,,,0.00,weatherlink.com 1.10,2013-03-04 12:56:00,
2013-03-04 07:11:00,25.6,15.0,29.97,ENE,73,1.0,-999.0,64,-99.99,,,0.00,weatherlink.com 1.10,2013-03-04 13:11:00,
2013-03-04 07:26:00,25.5,16.0,29.96,ESE,108,2.0,-999.0,66,-99.99,,,0.00,weatherlink.com 1.10,2013-03-04 13:26:00,
2013-03-04 07:41:00,25.5,16.0,29.97,ESE,113,5.0,-999.0,68,-99.99,,,0.00,weatherlink.com 1.10,2013-03-04 13:41:00,
2013-03-04 07:56:00,25.3,18.0,29.97,ESE,111,2.0,-999.0,73,-99.99,,,0.00,weatherlink.com 1.10,2013-03-04 13:56:00,
2013-03-04 08:11:00,24.9,19.0,29.98,SE,131,2.0,-999.0,77,-99.99,,,0.00,weatherlink.com 1.10,2013-03-04 14:11:00,
2013-03-04 08:26:00,24.8,20.0,29.98,SE,126,5.0,-999.0,81,-99.99,,,0.00,weatherlink.com 1.10,2013-03-04 14:26:00,
2013-03-04 08:41:00,24.7,20.0,29.98,East,90,3.0,-999.0,82,-99.99,,,0.00,weatherlink.com 1.10,2013-03-04 14:41:00,
2013-03-04 08:56:00,24.8,21.0,29.98,SE,128,4.0,-999.0,84,-99.99,,,0.00,weatherlink.com 1.10,2013-03-04 14:56:00,
2013-03-04 09:11:00,24.8,21.0,29.98,ESE,114,6.0,-999.0,85,-99.99,,,0.00,weatherlink.com 1.10,2013-03-04 15:11:00,
2013-03-04 09:26:00,24.9,21.0,29.98,NE,55,4.0,-999.0,86,-99.99,,,0.00,weatherlink.com 1.10,2013-03-04 15:26:00,
2013-03-04 09:41:00,24.8,21.0,29.98,East,89,4.0,-999.0,86,-99.99,,,0.00,weatherlink.com 1.10,2013-03-04 15:41:00,
2013-03-04 09:56:00,24.9,22.0,29.98,ESE,114,3.0,-999.0,87,-99.99,,,0.00,weatherlink.com 1.10,2013-03-04 15:56:00,
2013-03-04 10:11:00,24.9,22.0,29.98,SE,129,4.0,-999.0,87,-99.99,,,0.00,weatherlink.com 1.10,2013-03-04 16:11:00,
2013-03-04 10:26:00,25.1,22.0,29.98,NE,54,3.0,-999.0,87,-99.99,,,0.00,weatherlink.com 1.10,2013-03-04 16:26:00,
2013-03-04 10:41:00,25.3,22.0,29.98,ENE,63,5.0,-999.0,87,-99.99,,,0.00,weatherlink.com 1.10,2013-03-04 16:41:00,
2013-03-04 10:56:00,25.5,22.0,29.98,ESE,105,2.0,-999.0,87,-99.99,,,0.00,weatherlink.com 1.10,2013-03-04 16:56:00,
2013-03-04 11:11:00,25.3,22.0,29.98,East,94,5.0,-999.0,87,-99.99,,,0.00,weatherlink.com 1.10,2013-03-04 17:11:00,
2013-03-04 11:26:00,25.2,22.0,29.97,ESE,117,6.0,-999.0,87,-99.99,,,0.00,weatherlink.com 1.10,2013-03-04 17:26:00,
2013-03-04 11:41:00,25.1,22.0,29.97,ENE,57,5.0,-999.0,86,-99.99,,,0.00,weatherlink.com 1.10,2013-03-04 17:41:00,
2013-03-04 12:11:00,25.0,21.0,29.96,SE,144,11.0,-999.0,85,-99.99,,,0.00,weatherlink.com 1.10,2013-03-04 18:11:00,
2013-03-04 12:26:00,25.0,21.0,29.97,ESE,107,5.0,-999.0,85,-99.99,,,0.00,weatherlink.com 1.10,2013-03-04 18:26:00,
2013-03-04 12:41:00,25.0,21.0,29.97,ENE,67,2.0,-999.0,85,-99.99,,,0.00,weatherlink.com 1.10,2013-03-04 18:41:00,
2013-03-04 12:56:00,24.9,21.0,29.97,East,84,2.0,-999.0,85,-99.99,,,0.00,weatherlink.com 1.10,2013-03-04 18:56:00,
2013-03-04 13:11:00,25.0,21.0,29.97,ENE,59,4.0,-999.0,85,-99.99,,,0.00,weatherlink.com 1.10,2013-03-04 19:11:00,
2013-03-04 13:26:00,25.1,21.0,29.96,East,90,5.0,-999.0,85,-99.99,,,0.00,weatherlink.com 1.10,2013-03-04 19:26:00,
2013-03-04 13:41:00,25.2,21.0,29.96,East,82,2.0,-999.0,85,-99.99,,,0.00,weatherlink.com 1.10,2013-03-04 19:41:00,
2013-03-04 13:56:00,25.3,21.0,29.96,East,94,2.0,-999.0,84,-99.99,,,0.00,weatherlink.com 1.10,2013-03-04 19:56:00,
2013-03-04 14:11:00,25.6,21.0,29.96,East,86,5.0,-999.0,84,-99.99,,,0.00,weatherlink.com 1.10,2013-03-04 20:11:00,
2013-03-04 14:26:00,25.9,22.0,29.96,East,80,4.0,-999.0,84,-99.99,,,0.00,weatherlink.com 1.10,2013-03-04 20:26:00,
2013-03-04 14:41:00,26.1,22.0,29.96,SE,138,9.0,-999.0,84,-99.99,,,0.00,weatherlink.com 1.10,2013-03-04 20:41:00,
2013-03-04 14:56:00,26.1,22.0,29.96,East,82,4.0,-999.0,83,-99.99,,,0.00,weatherlink.com 1.10,2013-03-04 20:56:00,
2013-03-04 15:11:00,26.2,22.0,29.97,NE,47,2.0,-999.0,83,-99.99,,,0.00,weatherlink.com 1.10,2013-03-04 21:11:00,
2013-03-04 15:26:00,26.0,22.0,29.98,ENE,76,0.0,-999.0,83,-99.99,,,0.00,weatherlink.com 1.10,2013-03-04 21:26:00,
2013-03-04 15:41:00,25.9,21.0,29.98,ENE,57,5.0,-999.0,83,-99.99,,,0.00,weatherlink.com 1.10,2013-03-04 21:41:00,
2013-03-04 15:56:00,26.0,22.0,29.98,East,94,2.0,-999.0,83,-99.99,,,0.00,weatherlink.com 1.10,2013-03-04 21:56:00,
2013-03-04 16:11:00,25.9,21.0,29.98,ENE,63,3.0,-999.0,83,-99.99,,,0.00,weatherlink.com 1.10,2013-03-04 22:11:00,
2013-03-04 16:26:00,25.8,21.0,29.98,East,100,5.0,-999.0,83,-99.99,,,0.00,weatherlink.com 1.10,2013-03-04 22:26:00,
2013-03-04 16:41:00,25.7,21.0,29.98,ESE,106,6.0,-999.0,83,-99.99,,,0.00,weatherlink.com 1.10,2013-03-04 22:41:00,
2013-03-04 16:56:00,25.7,21.0,29.98,East,90,4.0,-999.0,82,-99.99,,,0.00,weatherlink.com 1.10,2013-03-04 22:56:00,
2013-03-04 17:11:00,25.6,21.0,29.98,ENE,71,2.0,-999.0,82,-99.99,,,0.00,weatherlink.com 1.10,2013-03-04 23:11:00,
2013-03-04 17:26:00,25.5,21.0,29.98,NE,55,5.0,-999.0,82,-99.99,,,0.00,weatherlink.com 1.10,2013-03-04 23:26:00,
2013-03-04 17:41:00,25.4,21.0,29.99,East,96,2.0,-999.0,82,-99.99,,,0.00,weatherlink.com 1.10,2013-03-04 23:41:00,
2013-03-04 17:57:00,25.4,21.0,29.99,SE,128,7.0,-999.0,82,-99.99,,,0.00,weatherlink.com 1.10,2013-03-04 23:57:00,
2013-03-04 18:12:00,25.3,21.0,30.00,NE,50,3.0,-999.0,82,-99.99,,,0.00,weatherlink.com 1.10,2013-03-05 00:12:00,
2013-03-04 18:27:00,25.3,21.0,30.00,East,101,3.0,-999.0,83,-99.99,,,0.00,weatherlink.com 1.10,2013-03-05 00:27:00,
2013-03-04 18:42:00,25.2,21.0,30.00,East,83,4.0,-999.0,84,-99.99,,,0.00,weatherlink.com 1.10,2013-03-05 00:42:00,
2013-03-04 18:57:00,25.1,21.0,30.00,East,84,4.0,-999.0,85,-99.99,,,0.00,weatherlink.com 1.10,2013-03-05 00:57:00,
2013-03-04 19:12:00,25.1,22.0,30.00,East,101,3.0,-999.0,86,-99.99,,,0.00,weatherlink.com 1.10,2013-03-05 01:12:00,
2013-03-04 19:27:00,25.1,22.0,30.01,ENE,70,2.0,-999.0,86,-99.99,,,0.00,weatherlink.com 1.10,2013-03-05 01:27:00,
2013-03-04 19:42:00,25.1,22.0,30.01,East,87,2.0,-999.0,87,-99.99,,,0.00,weatherlink.com 1.10,2013-03-05 01:42:00,
2013-03-04 19:57:00,25.0,22.0,30.02,East,90,0.0,-999.0,87,-99.99,,,0.00,weatherlink.com 1.10,2013-03-05 01:57:00,
2013-03-04 20:12:00,24.9,22.0,30.02,ENE,62,1.0,-999.0,88,-99.99,,,0.00,weatherlink.com 1.10,2013-03-05 02:12:00,
2013-03-04 20:27:00,24.8,22.0,30.03,ENE,62,1.0,-999.0,88,-99.99,,,0.00,weatherlink.com 1.10,2013-03-05 02:27:00,
2013-03-04 20:42:00,24.8,22.0,30.04,ENE,71,0.0,-999.0,89,-99.99,,,0.00,weatherlink.com 1.10,2013-03-05 02:42:00,
2013-03-04 20:57:00,24.7,22.0,30.04,ENE,78,0.0,-999.0,89,-99.99,,,0.00,weatherlink.com 1.10,2013-03-05 02:57:00,
2013-03-04 21:12:00,24.6,22.0,30.04,East,82,1.0,-999.0,89,-99.99,,,0.00,weatherlink.com 1.10,2013-03-05 03:12:00,
2013-03-04 21:27:00,24.5,22.0,30.03,ENE,65,1.0,-999.0,90,-99.99,,,0.00,weatherlink.com 1.10,2013-03-05 03:27:00,
2013-03-04 21:42:00,24.5,22.0,30.02,ENE,68,1.0,-999.0,90,-99.99,,,0.00,weatherlink.com 1.10,2013-03-05 03:42:00,
2013-03-04 21:57:00,24.5,22.0,30.03,ENE,59,4.0,-999.0,90,-99.99,,,0.00,weatherlink.com 1.10,2013-03-05 03:57:00,
2013-03-04 22:12:00,24.6,22.0,30.03,East,90,1.0,-999.0,90,-99.99,,,0.00,weatherlink.com 1.10,2013-03-05 04:12:00,
2013-03-04 22:27:00,24.6,22.0,30.03,East,84,1.0,-999.0,91,-99.99,,,0.00,weatherlink.com 1.10,2013-03-05 04:27:00,
2013-03-04 22:42:00,24.6,22.0,30.03,East,79,0.0,-999.0,91,-99.99,,,0.00,weatherlink.com 1.10,2013-03-05 04:42:00,
2013-03-04 22:57:00,24.7,23.0,30.03,East,79,1.0,-999.0,91,-99.99,,,0.00,weatherlink.com 1.10,2013-03-05 04:57:00,
2013-03-04 23:12:00,24.7,23.0,30.02,East,92,3.0,-999.0,91,-99.99,,,0.00,weatherlink.com 1.10,2013-03-05 05:12:00,
2013-03-04 23:27:00,24.8,23.0,30.02,ENE,63,1.0,-999.0,91,-99.99,,,0.00,weatherlink.com 1.10,2013-03-05 05:27:00,
2013-03-04 23:42:00,24.8,23.0,30.01,ENE,74,2.0,-999.0,91,-99.99,,,0.00,weatherlink.com 1.10,2013-03-05 05:42:00,
2013-03-04 23:57:00,24.9,23.0,30.01,ENE,74,4.0,-999.0,91,-99.99,,,0.00,weatherlink.com 1.10,2013-03-05 05:57:00,